Regional Weather Roundup
Issued by NWS Sioux Falls, SD

Home | Current Version | Previous Version | Graphics & Text | Print | Product List | Glossary On
Versions: 1 2 3 4 5 6 7 8 9 10 11 12 13 14 15 16 17 18 19 20 21 22 23 24 25 26 27 28 29 30 31 32 33 34 35 36 37 38 39 40 41 42 43 44 45 46 47 48 49 50
000
ASUS43 KFSD 041702
RWRFSD

WEATHER ROUNDUP FOR SE SOUTH DAKOTA/SW MINNESOTA/NW IOWA
NATIONAL WEATHER SERVICE SIOUX FALLS SD
1200 PM CDT FRI SEP 04 2015

NOTE: "FAIR" INDICATES FEW OR NO CLOUDS BELOW 12,000 FEET WITH NO
SIGNIFICANT WEATHER AND OR OBSTRUCTIONS TO VISIBILITY.


SDZ038>040-050-052>070-041800-
SOUTHEAST SOUTH DAKOTA

CITY           SKY/WX    TMP DP  RH WIND       PRES   REMARKS
BROOKINGS      CLOUDY   N/A N/A N/A CALM      29.88F
CHAMBERLAIN    SUNNY     80  69  69 S13       29.79R
HURON          PTSUNNY   80  71  74 SE9       29.80F
MADISON        LGT RAIN  75  75 100 E7        29.88R
MITCHELL       PTSUNNY   84  67  56 S13G20    29.80F
SIOUX FALLS    CLOUDY    76  67  73 S10       29.87R
WINNER         FAIR      84  64  50 S13       29.79S
YANKTON        CLOUDY    79  66  65 S10       29.83F
$$

MNZ071-072-080-081-089-090-097-098-041800-
SOUTHWEST MINNESOTA

CITY           SKY/WX    TMP DP  RH WIND       PRES   REMARKS
FAIRMONT       MOSUNNY   82  68  61 S10       29.91R
JACKSON        PTSUNNY   81  72  74 S9        29.93R
LUVERNE        PTSUNNY   79  68  69 SE9       29.90R
MARSHALL       PTSUNNY   82  66  57 SW12      29.89F
MONTEVIDEO     CLOUDY    82  70  65 SW8       29.90R
PIPESTONE      PTSUNNY   82  68  61 SW7       29.90S
REDWOOD FALLS  PTSUNNY   87  69  54 SW13      29.89R
TRACY          PTSUNNY   79  71  76 S5        29.90R
WINDOM         PTSUNNY   84  68  58 S6        29.91R
WORTHINGTON    PTSUNNY   82  70  65 S12       29.91S
$$

IAZ001>003-012>014-020>022-031-032-NEZ013-014-SDZ071-041800-
NORTHWEST IOWA

CITY           SKY/WX    TMP DP  RH WIND       PRES   REMARKS
ESTHERVILLE    PTSUNNY   82  71  69 S10       29.91S
SIOUX CITY     CLOUDY    76  71  85 SE7       29.87S
SPENCER        PTSUNNY   84  71  65 S13G20    29.93R
$$

ABBREVIATIONS USED IN REMARKS
   TC - TEMPERATURE IN CELSIUS
  WCI - WIND CHILL INDEX
   HX - HEAT INDEX
  VSB - VISIBILITY




USA.gov is the U.S. government's official web portal to all federal, state and local government web resources and services.